Flag for Slovenia Weather past 2 weeks in Maribor, Slovenia

Now
36 °F

Clear.


Feels Like: 32 °F
Forecast: 36 / 54 °F
Wind: 5 mph from South

Location: Maribor / Slivnica

Current Time: Mar 1, 2015 at 9:26:39 AM

Latest Report: Mar 1, 2015 at 9:00 AM


Visibility: 5 mi

Pressure: 29.98 "Hg

Humidity: 93%

Dew point: 34 °F

Location of MariborLocation

Historic Weather in Maribor — Graph

°F

Maribor temperature yesterday

Maximum temperature yesterday: 46 °F (at 1:00 PM)
Minimum temperature yesterday: 34 °F (at 12:00 AM)
Average temperature yesterday: 41 °F

Past Weeks' High & Low Weather Summary

 TemperatureHumidityPressure
High54 °F (Feb 20, 2:30 PM)100% (Feb 15, 5:00 AM)30.74 "Hg (Feb 15, 5:00 AM)
Low21 °F (Feb 19, 6:00 AM)35% (Feb 20, 2:30 PM)29.62 "Hg (Feb 23, 2:30 PM)
Average39 °F76%30.05 "Hg
* Reported Feb 14 8:00 AM — Mar 1 8:30 AM, Maribor, Weather by CustomWeather, © 2015

Note: Actual official high and low records may vary slightly from our data, if they occured in-between our weather recording intervals... More about our weather records

Advertising

Maribor weather history for previous 24 hours

 ConditionsComfort  
Time TempWeatherWind HumidityBarometerVisibility
8:30 AM
Sun, Mar 1
34 °FFog.2 mph93%29.98 "Hg3 mi
8:00 AM32 °FIce fog.No wind93%29.98 "Hg3 mi
7:30 AM28 °FIce fog.No wind93%29.98 "Hg2 mi
7:00 AM28 °FIce fog.3 mph93%29.98 "Hg2 mi
6:30 AM28 °FIce fog.1 mph93%30.01 "Hg2 mi
6:00 AM28 °FIce fog.1 mph100%30.01 "Hg2 mi
5:30 AM30 °FChilly.No wind93%30.01 "Hg3 mi
5:00 AM30 °FChilly.No wind93%30.01 "Hg4 mi
4:30 AM32 °FChilly.No wind93%30.01 "Hg4 mi
4:00 AM30 °FChilly.No wind93%30.04 "Hg3 mi
3:30 AM30 °FChilly.No wind93%30.04 "Hg4 mi
3:00 AM32 °FChilly.1 mph87%30.04 "Hg4 mi
2:30 AM32 °FChilly.2 mph93%30.04 "Hg3 mi
2:00 AM34 °FChilly.2 mph87%30.07 "Hg4 mi
1:30 AM34 °FChilly.3 mph87%30.07 "Hg4 mi
1:00 AM36 °FChilly.5 mph87%30.07 "Hg4 mi
12:30 AM37 °FClear.2 mph87%30.07 "Hg4 mi
12:00 AM37 °FClear.1 mph93%30.07 "HgN/A
11:30 PM
Sat, Feb 28
39 °FClear.1 mph87%30.09 "HgN/A
11:00 PM39 °FClear.No wind81%30.09 "HgN/A
10:30 PM39 °FClear.No wind81%30.09 "HgN/A
10:00 PM39 °FPartly cloudy.1 mph87%30.09 "Hg5 mi
9:30 PM39 °FPartly cloudy.No wind81%30.09 "Hg5 mi
9:00 PM39 °FPartly cloudy.1 mph87%30.09 "HgN/A
8:30 PM43 °FPartly cloudy.1 mph71%30.09 "HgN/A
8:00 PM43 °FPartly cloudy.1 mph76%30.09 "HgN/A
7:30 PM43 °FPartly cloudy.No wind71%30.09 "HgN/A
7:00 PM45 °FClear.No wind61%30.09 "Hg10 mi
6:30 PM45 °FClear.1 mph66%30.09 "Hg10 mi
6:00 PM45 °FClear.2 mph61%30.07 "Hg10 mi
5:30 PM45 °FSunny.2 mph66%30.07 "Hg10 mi
5:00 PM46 °FSunny.2 mph62%30.07 "Hg10 mi
4:30 PM46 °FPassing clouds.3 mph62%30.07 "HgN/A
4:00 PM46 °FPartly sunny.5 mph62%30.07 "HgN/A
3:30 PM46 °FPartly sunny.5 mph62%30.07 "HgN/A
3:00 PM46 °FPartly sunny.5 mph62%30.07 "HgN/A
2:30 PM46 °FPartly sunny.3 mph62%30.07 "HgN/A
2:00 PM46 °FPartly sunny.5 mph62%30.09 "HgN/A
1:30 PM46 °FPartly sunny.3 mph62%30.09 "HgN/A
1:00 PM46 °FPartly sunny.3 mph62%30.09 "HgN/A
12:30 PM45 °FBroken clouds.3 mph66%30.09 "HgN/A
12:00 PM45 °FBroken clouds.3 mph66%30.09 "HgN/A
11:30 AM45 °FBroken clouds.1 mph66%30.09 "HgN/A
11:00 AM45 °FBroken clouds.3 mph66%30.09 "HgN/A
10:30 AM43 °FBroken clouds.2 mph71%30.09 "Hg4 mi
10:00 AM41 °FBroken clouds.2 mph81%30.09 "Hg4 mi
9:30 AM41 °FPartly sunny.No wind81%30.09 "Hg4 mi
9:00 AM39 °FPartly sunny.1 mph81%30.09 "Hg4 mi
Weather by CustomWeather, © 2015

See weather overviewHow to use our weather pages